Regional Weather Roundup
Issued by NWS

Home | Current Version | Previous Version | Text Only | Print | Product List | Glossary Off
Versions: 1 2 3 4 5 6 7 8 9 10 11 12 13 14 15 16 17 18 19 20 21 22 23 24 25 26 27 28 29 30 31 32 33 34 35 36 37 38 39 40 41 42 43 44 45 46 47 48 49 50

000
ASUS43 KLOT 310809
RWRIL

ILLINOIS REGIONAL WEATHER ROUNDUP
NATIONAL WEATHER SERVICE CHICAGO/ROMEOVILLE IL
300 AM CDT WED AUG 31 2016

NOTE: "FAIR" INDICATES FEW OR NO CLOUDS BELOW 12,000 FEET WITH NO
SIGNIFICANT WEATHER AND/OR OBSTRUCTIONS TO VISIBILITY.

* THESE STATIONS ARE NOT UNDER NWS QUALITY CONTROL. THEY ALSO MAY NOT
  REPORT WEATHER SUCH AS PRECIPITATION OR FOG.

ILZ001-002-007-009-015-016-024-310900-
NORTHWEST ILLINOIS

CITY           SKY/WX    TMP DP  RH WIND       PRES   REMARKS
MOLINE         CLOUDY    74  69  85 N6        30.08S
STERLING*      CLEAR     70  68  93 NW6       30.08S
SAVANNA*       PTCLDY    68  66  93 CALM      30.09S
$$

ILZ003-004-008-010-011-017-018-310900-
NORTH CENTRAL ILLINOIS

CITY           SKY/WX    TMP DP  RH WIND       PRES   REMARKS
ROCKFORD       CLOUDY    71  67  87 N6        30.08S
FREEPORT*      CLOUDY    67  65  94 CALM      30.10S
ROCHELLE*      PTCLDY    67  67  99 CALM      30.08S
DE KALB*       PTCLDY    68  67  98 NW5       30.07F
$$

ILZ005-006-012>014-019>023-310900-
NORTHEAST ILLINOIS

CITY           SKY/WX    TMP DP  RH WIND       PRES   REMARKS
CHICAGO-OHARE  MOCLDY    72  67  84 NW7       30.04S
CHICAGO-MIDWAY PTCLDY    73  67  81 NW5       30.03S
AURORA         CLEAR     67  65  93 NW3       30.06S
LANSING*       CLOUDY    70  70 100 W3        30.04S
JOLIET*        CLEAR     71  69  94 CALM      30.04F
WAUKEGAN       CLOUDY    70  67  90 N8        30.04S
DUPAGE AIRPORT CLEAR     68  65  90 NW5       30.05S
KANKAKEE*      CLOUDY    71  70  96 CALM      30.05S
WHEELING       CLOUDY    71  67  87 N5        30.05S
MORRIS*        CLEAR     68  67  96 CALM      30.04S FOG
ROMEOVILLE*    CLEAR     68  68 100 NW5       30.05S
NORTHERLY ISL    N/A     74  66  76 W6          N/A
$$

LMZ740>746-310900-
SOUTHERN LAKE MICHIGAN

STATION/POSITION SKY/WX   TEMP    WIND        PRES    VSBY  WAVE
                          AIR SEA DIR/SP/G                  HT/PER
                          (F)     (DEG/KT/KT) (MB)    (MI)  (FT/S)
SOUTHERN BUOY              74 75  360/ 12/ 14 1015.8S         1
WILMETTE HARBOR            74 74  360/ 12/ 16   N/A           0
HARRISON CRIB              75     270/  5/  6   N/A
BURNHAM HARBOR             74     280/  4/  6   N/A
CALUMET HARBOR             73     200/  2/  3 1016.7F
BURNS HARBOR               74     310/  5/  6 1017.6S
MICHIGAN CITY              73     320/  8/  8   N/A
MICHIGAN CITY 6N           74 70  320/  4/  6   N/A           1/ 2
ST. JOSEPH                 74 72  310/  6/  8 1016.2F         1
$$

ILZ025>027-034>036-040-047-049-050-058-095>099-310900-
WEST-CENTRAL ILLINOIS

CITY           SKY/WX    TMP DP  RH WIND       PRES   REMARKS
QUINCY         MOCLDY    71  70  96 NW3       30.08S FOG
GALESBURG*     CLOUDY    71  70  97 NW3       30.08F FOG
MACOMB*        CLOUDY    72  70  95 N5        30.09S
JACKSONVILLE*  FOG       69  68  97 CALM      30.07S VSB 1
PITTSFIELD*    CLOUDY    71  71  99 CALM      30.09S FOG
$$

ILZ028>032-037-038-041>044-048-051>054-059>061-310900-
CENTRAL ILLINOIS

CITY           SKY/WX    TMP DP  RH WIND       PRES   REMARKS
PONTIAC        CLOUDY    70  70 100 CALM      30.06S FOG
BLOOMINGTON    CLOUDY    72  71  97 NW6       30.07S
DECATUR        CLEAR     73  70  90 W6        30.06S
PEORIA         CLOUDY    72  72 100 CALM      30.06F
LACON*         CLOUDY    70  69  97 CALM      30.05F
LINCOLN*       CLEAR     72  72 100 CALM      30.05F
SPRINGFIELD    CLEAR     70  69  97 CALM      30.06F FOG
TAYLORVILLE    FOG       68  68 100 CALM      30.06F VSB 1
$$

ILZ033-039-045-046-055>057-062-063-310900-
EAST-CENTRAL ILLINOIS

CITY           SKY/WX    TMP DP  RH WIND       PRES   REMARKS
CHAMPAIGN      CLEAR     69  68  96 W3        30.05F FOG
RANTOUL*       CLEAR     72  71  98 W3        30.05S FOG
MATTOON        CLEAR     68  67  96 W3        30.04F
PARIS*         CLOUDY    70  70 100 CALM      30.05S FOG
$$

ILZ079-100>102-310900-
SOUTHWEST ILLINOIS

CITY           SKY/WX    TMP DP  RH WIND       PRES   REMARKS
ALTON          FOG       70  70  99 CALM      30.07S VSB 1/4
BELLEVILLE     CLOUDY    71  71 100 CALM      30.05F
CAHOKIA*       FOG       69  68  96 CALM      30.06F VSB 3/4
SPARTA*        PTCLDY    70  69  99 CALM      30.07F FOG
$$

ILZ064>066-069>071-074>076-080>082-084>086-088>090-092>094-310900-
SOUTH-CENTRAL ILLINOIS

CITY           SKY/WX    TMP DP  RH WIND       PRES   REMARKS
CARBONDALE     CLEAR     70  68  93 CALM      30.06F
CAIRO*         CLEAR     71  70  98 CALM      30.04F
EFFINGHAM*     CLEAR     69  69 100 CALM      30.06F FOG
MARION         CLEAR     72  72 100 CALM      30.06F FOG
MT. VERNON     CLEAR     72  66  83 CALM      30.06F
CENTRALIA*     PTCLDY    70  70 100 W3        30.05F FOG
SALEM*         FOG       71  70  95 CALM      30.06S VSB 1/4
METROPOLIS*    CLEAR     74  73  96 CALM      30.05R
$$

ILZ067-068-072-073-078-083-087-091-310900-
SOUTHEAST ILLINOIS

CITY           SKY/WX    TMP DP  RH WIND       PRES   REMARKS
LAWRENCEVILLE  CLOUDY    73  73 100 CALM      30.03F
FLORA*         CLOUDY    74  72  94 CALM      30.05S
FAIRFIELD*       N/A     72  72  99 CALM      30.04S
HARRISBURG*    CLEAR     73  72  99 NW3       30.05S
ROBINSON*      MOCLDY    70  70 100 W3        30.05S FOG
CARMI*         CLEAR     71  71  99 W3        30.03S
$$

ABBREVIATIONS USED IN REMARKS
   TC - TEMPERATURE IN CELSIUS
  WCI - WIND CHILL INDEX
   HX - HEAT INDEX
  VSB - VISIBILITY
$$





USA.gov is the U.S. government's official web portal to all federal, state and local government web resources and services.